TimeMST,TemperatureF,Dew PointF,Humidity,Sea Level PressureIn,VisibilityMPH,Wind Direction,Wind SpeedMPH,Gust SpeedMPH,PrecipitationIn,Events,Conditions,WindDirDegrees,DateUTC
12:52 AM,36.0,33.1,89,29.62,7.0,Calm,Calm,-,N/A,,Overcast,0,2012-11-10 07:52:00
1:16 AM,35.6,33.8,93,29.58,4.0,ENE,3.5,-,N/A,,Overcast,60,2012-11-10 08:16:00
1:37 AM,35.6,33.8,93,29.57,5.0,ENE,4.6,-,N/A,,Overcast,70,2012-11-10 08:37:00
1:52 AM,35.1,33.1,92,29.61,7.0,ENE,4.6,-,N/A,,Overcast,70,2012-11-10 08:52:00
2:52 AM,35.1,34.0,96,29.62,3.0,North,3.5,-,N/A,,Overcast,10,2012-11-10 09:52:00
3:52 AM,35.1,34.0,96,29.63,4.0,North,4.6,-,N/A,,Overcast,350,2012-11-10 10:52:00
5:13 AM,35.6,33.8,93,29.57,10.0,North,5.8,-,N/A,,Overcast,360,2012-11-10 12:13:00
5:31 AM,35.6,33.8,93,29.59,10.0,North,3.5,-,N/A,,Overcast,350,2012-11-10 12:31:00
5:47 AM,35.6,33.8,93,29.58,10.0,Calm,Calm,-,N/A,,Overcast,0,2012-11-10 12:47:00
5:52 AM,35.1,33.1,92,29.64,10.0,Calm,Calm,-,N/A,,Overcast,0,2012-11-10 12:52:00
6:02 AM,35.6,33.8,93,29.59,10.0,Calm,Calm,-,N/A,,Overcast,0,2012-11-10 13:02:00
6:33 AM,35.6,33.8,93,29.60,8.0,Calm,Calm,-,N/A,,Overcast,0,2012-11-10 13:33:00
6:41 AM,35.6,33.8,93,29.60,8.0,NNW,6.9,-,N/A,,Overcast,330,2012-11-10 13:41:00
6:52 AM,34.0,33.1,96,29.66,6.0,North,6.9,-,N/A,,Overcast,360,2012-11-10 13:52:00
7:52 AM,34.0,32.0,92,29.67,7.0,North,5.8,-,N/A,,Overcast,350,2012-11-10 14:52:00
8:38 AM,33.8,30.2,87,29.61,10.0,NNW,9.2,-,N/A,,Overcast,340,2012-11-10 15:38:00
8:47 AM,33.8,32.0,93,29.62,8.0,NNW,10.4,-,N/A,,Overcast,330,2012-11-10 15:47:00
8:52 AM,34.0,32.0,92,29.68,8.0,NNW,9.2,-,N/A,,Overcast,340,2012-11-10 15:52:00
9:28 AM,33.8,30.2,87,29.62,10.0,NNW,13.8,20.7,N/A,,Overcast,330,2012-11-10 16:28:00
9:52 AM,33.1,30.9,92,29.67,10.0,NNW,13.8,19.6,N/A,,Overcast,340,2012-11-10 16:52:00
10:21 AM,33.8,30.2,87,29.60,10.0,North,13.8,-,N/A,,Overcast,10,2012-11-10 17:21:00
10:42 AM,33.8,30.2,87,29.59,10.0,North,17.3,23.0,N/A,,Overcast,10,2012-11-10 17:42:00
10:52 AM,35.1,30.0,82,29.64,10.0,North,20.7,25.3,N/A,,Overcast,10,2012-11-10 17:52:00
11:07 AM,33.8,28.4,81,29.59,10.0,North,13.8,24.2,N/A,,Overcast,360,2012-11-10 18:07:00
11:52 AM,30.9,26.1,82,29.66,10.0,North,13.8,25.3,N/A,,Overcast,350,2012-11-10 18:52:00
12:38 PM,28.4,24.8,86,29.61,2.0,North,12.7,19.6,0.00,Snow,Light Snow,360,2012-11-10 19:38:00
12:47 PM,28.4,24.8,86,29.61,1.2,North,12.7,-,0.00,Snow,Light Snow,350,2012-11-10 19:47:00
12:52 PM,28.9,25.0,85,29.68,0.8,North,12.7,19.6,0.00,Snow,Light Snow,350,2012-11-10 19:52:00
1:13 PM,28.4,24.8,86,29.62,0.2,North,12.7,21.9,0.00,Fog-Snow,Snow,350,2012-11-10 20:13:00
1:52 PM,26.1,24.1,92,29.72,0.2,North,10.4,-,0.00,Fog-Snow,Heavy Snow,10,2012-11-10 20:52:00
2:07 PM,26.6,23.0,86,29.66,0.5,NNW,13.8,-,0.00,Fog-Snow,Snow,340,2012-11-10 21:07:00
2:38 PM,24.8,21.2,86,29.69,0.8,North,10.4,19.6,0.00,Snow,Light Snow,360,2012-11-10 21:38:00
2:45 PM,24.8,19.4,80,29.69,1.2,North,17.3,25.3,0.00,Snow,Light Snow,360,2012-11-10 21:45:00
2:52 PM,24.1,19.9,84,29.78,1.8,North,11.5,25.3,0.00,Snow,Light Snow,360,2012-11-10 21:52:00
3:07 PM,24.8,19.4,80,29.71,2.0,North,13.8,21.9,0.00,Snow,Light Snow,360,2012-11-10 22:07:00
3:20 PM,23.0,19.4,86,29.72,1.8,North,12.7,18.4,0.00,Snow,Light Snow,360,2012-11-10 22:20:00
3:52 PM,21.9,17.1,82,29.82,1.0,North,18.4,25.3,0.00,Snow,Light Snow,360,2012-11-10 22:52:00
4:09 PM,21.2,17.6,86,29.76,0.8,North,13.8,23.0,0.00,Snow,Light Snow,360,2012-11-10 23:09:00
4:24 PM,21.2,17.6,86,29.76,1.0,North,12.7,-,0.00,Snow,Light Snow,350,2012-11-10 23:24:00
4:52 PM,21.0,17.1,85,29.85,1.2,North,17.3,24.2,0.00,Snow,Light Snow,360,2012-11-10 23:52:00
5:08 PM,19.4,15.8,86,29.79,2.5,North,13.8,23.0,0.00,Snow,Light Snow,350,2012-11-11 00:08:00
5:36 PM,19.4,15.8,86,29.80,1.5,North,10.4,19.6,0.00,Snow,Light Snow,350,2012-11-11 00:36:00
5:52 PM,19.9,15.1,81,29.91,2.5,NNW,12.7,21.9,0.00,Snow,Light Snow,340,2012-11-11 00:52:00
5:59 PM,19.4,15.8,86,29.81,3.0,NNW,10.4,19.6,0.00,Snow,Light Snow,340,2012-11-11 00:59:00
6:14 PM,19.4,14.0,80,29.82,4.0,North,12.7,21.9,0.00,Snow,Light Snow,350,2012-11-11 01:14:00
6:52 PM,19.0,12.9,77,29.92,4.0,North,18.4,25.3,0.00,Snow,Light Snow,350,2012-11-11 01:52:00
7:52 PM,19.0,12.0,74,29.94,10.0,North,9.2,18.4,0.00,,Mostly Cloudy,350,2012-11-11 02:52:00
8:52 PM,18.0,10.9,74,29.94,10.0,North,13.8,23.0,N/A,,Overcast,350,2012-11-11 03:52:00
9:25 PM,17.6,8.6,68,29.83,10.0,North,17.3,27.6,N/A,,Overcast,360,2012-11-11 04:25:00
10:23 PM,19.4,10.4,68,29.87,10.0,NW,9.2,-,N/A,,Overcast,310,2012-11-11 05:23:00
10:52 PM,18.0,10.0,71,29.97,10.0,NW,9.2,-,N/A,,Overcast,320,2012-11-11 05:52:00
11:52 PM,18.0,9.0,68,29.99,10.0,North,5.8,-,N/A,,Overcast,10,2012-11-11 06:52:00